Weather History for KCRE - November, 2012

Change the Weather History Date:

Sunday, November 18, 2012

  Actual Average Record
Temperature  
Mean Temperature 53 °F 56 °F  
Max Temperature 56 °F 66 °F 82 °F (2013)
Min Temperature 50 °F 46 °F 25 °F (1997)
Degree Days  
Heating Degree Days 12 10  
Month to date heating degree days 219 136  
Since 1 July heating degree days 305 226  
Cooling Degree Days 0 0  
Month to date cooling degree days 1 12  
Year to date cooling degree days 2096 1895  
Growing Degree Days 2 (Base 50)    
Moisture  
Dew Point 50 °F    
Average Humidity 82    
Maximum Humidity 93    
Minimum Humidity 71    
Precipitation  
Precipitation 0.89 in 0.11 in 0.89 in (2012)
Month to date precipitation 2.16 1.81  
Year to date precipitation 35.39 47.32  
Sea Level Pressure  
Sea Level Pressure 30.23 in    
Wind  
Wind Speed 16 mph (NNE)    
Max Wind Speed 25 mph    
Max Gust Speed 39 mph    
Visibility 7 miles    
Events Rain    
T = Trace of Precipitation, MM = Missing Value Source: NWS Daily Summary

Daily Weather History Graph

Daily Weather History Graph

Search for Another Location

Airport or City:

Trip Planner

Search our weather history database for the weather conditions in past years. The results will help you decide how hot, cold, wet, or windy it might be!

Date:

Astronomy

Nov. 18, 2012 Rise Set
Actual Time 6:50 AM EST 5:09 PM EST
Civil Twilight 6:23 AM EST 5:36 PM EST
Nautical Twilight 5:53 AM EST 6:06 PM EST
Astronomical Twilight 5:23 AM EST 6:36 PM EST
Moon 11:18 AM EST (11/18) 10:23 PM EST (11/18)
Length of Visible Light 11h 12m
Length of Day
10h 19m
Waxing Crescent, 30% of the Moon is Illuminated
Nov 18
Waxing Crescent
Nov 20
First Quarter
Nov 28
Full
Dec 6
Last Quarter
Dec 13
New

Hourly Weather History & Observations

Time (EST) Temp. Dew Point Humidity Pressure Visibility Wind Dir Wind Speed Gust Speed Precip Events Conditions
12:15 AM 53.6 °F 44.6 °F 72% 30.31 in 10.0 mi North 10.4 mph 20.7 mph N/A   Overcast
12:35 AM 51.8 °F 44.6 °F 76% 30.30 in 10.0 mi NNE 15.0 mph 24.2 mph N/A   Scattered Clouds
12:53 AM 52.0 °F 45.0 °F 77% 30.30 in 10.0 mi NNE 15.0 mph 26.5 mph N/A   Clear
1:53 AM 51.1 °F 45.0 °F 80% 30.27 in 10.0 mi NNE 13.8 mph 28.8 mph N/A   Clear
2:53 AM 52.0 °F 45.0 °F 77% 30.27 in 10.0 mi NNE 17.3 mph 29.9 mph N/A   Overcast
3:53 AM 51.1 °F 46.9 °F 86% 30.26 in 4.0 mi NNE 16.1 mph 25.3 mph 0.04 in Rain Rain
4:03 AM 50.0 °F 46.4 °F 87% 30.26 in 2.0 mi North 13.8 mph 24.2 mph 0.09 in Rain Heavy Rain
4:17 AM 50.0 °F 48.2 °F 94% 30.26 in 6.0 mi NNE 15.0 mph 23.0 mph 0.15 in Rain Rain
4:53 AM 50.0 °F 46.9 °F 89% 30.25 in 9.0 mi North 12.7 mph 21.9 mph 0.17 in Rain Light Rain
5:53 AM 51.1 °F 46.9 °F 86% 30.25 in 10.0 mi North 12.7 mph 23.0 mph 0.00 in   Mostly Cloudy
6:39 AM 51.8 °F 48.2 °F 88% 30.26 in 10.0 mi NNE 13.8 mph 23.0 mph N/A   Overcast
6:53 AM 52.0 °F 48.0 °F 86% 30.27 in 10.0 mi North 13.8 mph 20.7 mph N/A   Overcast
7:53 AM 52.0 °F 48.9 °F 89% 30.25 in 10.0 mi NNE 16.1 mph 23.0 mph 0.01 in Rain Light Rain
8:53 AM 53.1 °F 48.9 °F 86% 30.26 in 5.0 mi North 15.0 mph 27.6 mph 0.02 in Rain Light Rain
9:10 AM 51.8 °F 50.0 °F 94% 30.25 in 2.5 mi NNE 13.8 mph 23.0 mph 0.07 in Rain Heavy Rain
9:24 AM 53.6 °F 50.0 °F 88% 30.25 in 3.0 mi NNE 15.0 mph 24.2 mph 0.10 in Rain Rain
9:38 AM 53.6 °F 50.0 °F 88% 30.26 in 2.5 mi NNE 13.8 mph 23.0 mph 0.16 in Rain Heavy Rain
9:53 AM 53.1 °F 50.0 °F 89% 30.26 in 2.5 mi North 17.3 mph 25.3 mph 0.21 in Rain Rain
10:00 AM 53.6 °F 51.8 °F 94% 30.25 in 2.5 mi NNE 17.3 mph 26.5 mph 0.02 in Rain Heavy Rain
10:04 AM 53.6 °F 51.8 °F 94% 30.25 in 3.0 mi NNE 15.0 mph 26.5 mph 0.04 in Rain Rain
10:18 AM 53.6 °F 51.8 °F 94% 30.27 in 3.0 mi NNE 16.1 mph 21.9 mph 0.08 in Rain Rain
10:33 AM 53.6 °F 51.8 °F 94% 30.26 in 3.0 mi NNE 18.4 mph 27.6 mph 0.14 in Rain Rain
10:53 AM 53.1 °F 51.1 °F 93% 30.25 in 3.0 mi NNE 17.3 mph 25.3 mph 0.21 in Rain Rain
11:06 AM 53.6 °F 51.8 °F 94% 30.24 in 2.5 mi NNE 17.3 mph 26.5 mph 0.04 in Rain Rain
11:15 AM 53.6 °F 51.8 °F 94% 30.23 in 1.5 mi NNE 18.4 mph 28.8 mph 0.10 in Rain Rain
11:24 AM 53.6 °F 51.8 °F 94% 30.23 in 2.5 mi NNE 18.4 mph 28.8 mph 0.13 in Rain Rain
11:27 AM 53.6 °F 51.8 °F 94% 30.23 in 3.0 mi NNE 19.6 mph 27.6 mph 0.13 in Rain Rain
11:46 AM 53.6 °F 51.8 °F 94% 30.21 in 2.5 mi North 19.6 mph 29.9 mph 0.18 in Rain Rain
11:53 AM 54.0 °F 51.1 °F 90% 30.21 in 4.0 mi NNE 20.7 mph 31.1 mph 0.19 in Rain Light Rain
12:53 PM 54.0 °F 52.0 °F 93% 30.20 in 4.0 mi NNE 16.1 mph 28.8 mph 0.04 in Rain Light Rain
1:00 PM 53.6 °F 51.8 °F 94% 30.19 in 9.0 mi NNE 18.4 mph 32.2 mph 0.00 in Rain Light Rain
1:15 PM 53.6 °F 51.8 °F 94% 30.19 in 5.0 mi NNE 18.4 mph 28.8 mph 0.00 in   Overcast
1:53 PM 55.0 °F 51.1 °F 86% 30.18 in 10.0 mi NNE 16.1 mph 28.8 mph 0.00 in   Overcast
2:53 PM 55.0 °F 51.1 °F 86% 30.17 in 10.0 mi NNE 19.6 mph 27.6 mph N/A   Overcast
3:53 PM 55.9 °F 51.1 °F 84% 30.17 in 10.0 mi NNE 21.9 mph 29.9 mph N/A   Overcast
4:53 PM 55.9 °F 52.0 °F 87% 30.18 in 10.0 mi NNE 15.0 mph 24.2 mph N/A   Overcast
5:53 PM 55.9 °F 52.0 °F 87% 30.18 in 10.0 mi NNE 17.3 mph 32.2 mph N/A   Overcast
6:53 PM 55.9 °F 52.0 °F 87% 30.19 in 10.0 mi NNE 18.4 mph 27.6 mph N/A   Overcast
7:53 PM 55.9 °F 52.0 °F 87% 30.18 in 10.0 mi NNE 13.8 mph 29.9 mph N/A   Overcast
8:53 PM 55.9 °F 52.0 °F 87% 30.19 in 10.0 mi NNE 18.4 mph 28.8 mph N/A   Overcast
9:53 PM 55.9 °F 51.1 °F 84% 30.19 in 10.0 mi North 11.5 mph 23.0 mph N/A   Overcast
10:53 PM 55.9 °F 51.1 °F 84% 30.18 in 10.0 mi NNE 16.1 mph 29.9 mph N/A   Overcast
11:53 PM 55.9 °F 51.1 °F 84% 30.17 in 10.0 mi North 17.3 mph 25.3 mph N/A   Overcast